Time,TemperatureF,DewpointF,PressureIn,WindDirection,WindDirectionDegrees,WindSpeedMPH,WindSpeedGustMPH,Humidity,HourlyPrecipIn,Conditions,Clouds,dailyrainin,SoftwareType,DateUTC
2013-01-16 00:00:00,32.0,30.1,30.69,NE,45,1.5,3.0,92,0.00,,,0.00,NetBSD+Arduino,2013-01-16 08:00:00,
2013-01-16 00:06:00,32.1,30.3,30.69,North,0,1.0,3.0,92,0.00,,,0.00,NetBSD+Arduino,2013-01-16 08:06:00,
2013-01-16 00:15:00,31.8,30.0,30.69,NW,315,0.4,1.5,92,0.00,,,0.00,NetBSD+Arduino,2013-01-16 08:15:00,
2013-01-16 00:20:00,31.7,29.8,30.69,NE,45,2.6,3.0,92,0.00,,,0.00,NetBSD+Arduino,2013-01-16 08:20:00,
2013-01-16 00:30:00,31.7,29.9,30.69,NE,45,1.5,4.5,93,0.00,,,0.00,NetBSD+Arduino,2013-01-16 08:30:00,
2013-01-16 00:40:00,31.8,30.0,30.69,North,0,2.2,4.5,92,0.00,,,0.00,NetBSD+Arduino,2013-01-16 08:40:00,
2013-01-16 00:51:00,31.7,29.9,30.70,East,90,1.5,4.5,93,0.00,,,0.00,NetBSD+Arduino,2013-01-16 08:51:00,
2013-01-16 01:00:00,31.6,30.0,30.69,North,0,1.1,4.5,93,0.00,,,0.00,NetBSD+Arduino,2013-01-16 09:00:00,
2013-01-16 01:05:00,31.5,29.8,30.70,NE,45,1.5,4.5,93,0.00,,,0.00,NetBSD+Arduino,2013-01-16 09:05:00,
2013-01-16 01:11:00,31.4,29.7,30.70,North,0,0.5,4.5,93,0.00,,,0.00,NetBSD+Arduino,2013-01-16 09:11:00,
2013-01-16 01:16:00,31.4,29.9,30.70,North,0,1.2,4.5,94,0.00,,,0.00,NetBSD+Arduino,2013-01-16 09:16:00,
2013-01-16 01:30:00,31.1,29.6,30.70,North,0,1.0,3.0,94,0.00,,,0.00,NetBSD+Arduino,2013-01-16 09:30:00,
2013-01-16 01:35:00,31.0,29.6,30.69,North,0,0.4,3.0,94,0.00,,,0.00,NetBSD+Arduino,2013-01-16 09:35:00,
2013-01-16 01:41:00,30.7,29.4,30.69,North,0,0.7,3.0,94,0.00,,,0.00,NetBSD+Arduino,2013-01-16 09:41:00,
2013-01-16 01:46:00,31.0,29.7,30.69,North,0,0.7,4.5,94,0.00,,,0.00,NetBSD+Arduino,2013-01-16 09:46:00,
2013-01-16 01:51:00,31.1,29.8,30.69,North,0,1.1,3.0,94,0.00,,,0.00,NetBSD+Arduino,2013-01-16 09:51:00,
2013-01-16 01:56:00,31.1,29.8,30.69,North,0,1.5,4.5,94,0.00,,,0.00,NetBSD+Arduino,2013-01-16 09:56:00,
2013-01-16 02:05:00,31.1,30.0,30.69,North,0,1.0,4.5,95,0.00,,,0.00,NetBSD+Arduino,2013-01-16 10:05:00,
2013-01-16 02:25:00,30.6,29.5,30.70,West,270,0.0,0.0,95,0.00,,,0.00,NetBSD+Arduino,2013-01-16 10:25:00,
2013-01-16 02:30:00,30.5,29.5,30.70,North,0,0.0,1.5,96,0.00,,,0.00,NetBSD+Arduino,2013-01-16 10:30:00,
2013-01-16 02:40:00,30.4,29.5,30.70,West,270,0.0,1.5,96,0.00,,,0.00,NetBSD+Arduino,2013-01-16 10:40:00,
2013-01-16 02:45:00,30.4,29.5,30.71,West,270,0.0,1.5,96,0.00,,,0.00,NetBSD+Arduino,2013-01-16 10:45:00,
2013-01-16 02:51:00,30.2,29.3,30.70,NW,315,0.4,1.5,96,0.00,,,0.00,NetBSD+Arduino,2013-01-16 10:51:00,
2013-01-16 02:56:00,30.5,29.6,30.70,North,0,0.0,3.0,96,0.00,,,0.00,NetBSD+Arduino,2013-01-16 10:56:00,
2013-01-16 03:05:00,30.5,29.6,30.70,NE,45,0.0,3.0,96,0.00,,,0.00,NetBSD+Arduino,2013-01-16 11:05:00,
2013-01-16 03:10:00,30.4,29.5,30.70,North,0,0.5,3.0,96,0.00,,,0.00,NetBSD+Arduino,2013-01-16 11:10:00,
2013-01-16 03:20:00,30.0,29.2,30.70,North,0,0.0,0.0,97,0.00,,,0.00,NetBSD+Arduino,2013-01-16 11:20:00,
2013-01-16 03:30:00,30.0,29.2,30.70,North,0,0.4,1.5,97,0.00,,,0.00,NetBSD+Arduino,2013-01-16 11:30:00,
2013-01-16 03:35:00,29.8,29.1,30.70,NE,45,0.4,3.0,97,0.00,,,0.00,NetBSD+Arduino,2013-01-16 11:35:00,
2013-01-16 03:40:00,29.7,28.9,30.70,NE,45,0.0,1.5,97,0.00,,,0.00,NetBSD+Arduino,2013-01-16 11:40:00,
2013-01-16 03:45:00,29.7,28.9,30.69,North,0,0.5,1.5,97,0.00,,,0.00,NetBSD+Arduino,2013-01-16 11:45:00,
2013-01-16 03:50:00,29.8,29.1,30.69,NE,45,0.5,3.0,97,0.00,,,0.00,NetBSD+Arduino,2013-01-16 11:50:00,
2013-01-16 04:00:00,30.4,29.7,30.69,NE,45,2.2,4.5,97,0.00,,,0.00,NetBSD+Arduino,2013-01-16 12:00:00,
2013-01-16 04:05:00,30.4,29.7,30.69,NE,45,1.0,3.0,97,0.00,,,0.00,NetBSD+Arduino,2013-01-16 12:05:00,
2013-01-16 04:10:00,30.2,29.5,30.69,NE,45,2.0,4.5,97,0.00,,,0.00,NetBSD+Arduino,2013-01-16 12:10:00,
2013-01-16 04:16:00,30.5,29.8,30.68,NE,45,2.1,4.5,97,0.00,,,0.00,NetBSD+Arduino,2013-01-16 12:16:00,
2013-01-16 04:25:00,30.4,29.7,30.69,NE,45,0.5,3.0,97,0.00,,,0.00,NetBSD+Arduino,2013-01-16 12:25:00,
2013-01-16 04:40:00,29.7,29.0,30.68,South,180,1.1,1.5,97,0.00,,,0.00,NetBSD+Arduino,2013-01-16 12:40:00,
2013-01-16 04:50:00,29.2,28.7,30.68,SE,135,0.0,3.0,97,0.00,,,0.00,NetBSD+Arduino,2013-01-16 12:50:00,
2013-01-16 04:55:00,29.1,28.5,30.68,South,180,1.1,1.5,97,0.00,,,0.00,NetBSD+Arduino,2013-01-16 12:55:00,
2013-01-16 05:00:00,29.1,28.5,30.68,SE,135,0.5,3.0,97,0.00,,,0.00,NetBSD+Arduino,2013-01-16 13:00:00,
2013-01-16 05:10:00,28.9,28.3,30.68,South,180,0.0,1.5,97,0.00,,,0.00,NetBSD+Arduino,2013-01-16 13:10:00,
2013-01-16 05:15:00,28.8,28.2,30.68,SE,135,0.7,1.5,97,0.00,,,0.00,NetBSD+Arduino,2013-01-16 13:15:00,
2013-01-16 05:25:00,28.3,27.9,30.68,East,90,1.0,4.5,98,0.00,,,0.00,NetBSD+Arduino,2013-01-16 13:25:00,
2013-01-16 05:30:00,28.3,27.9,30.67,East,90,1.1,3.0,98,0.00,,,0.00,NetBSD+Arduino,2013-01-16 13:30:00,
2013-01-16 05:40:00,28.4,28.0,30.67,East,90,0.0,1.5,98,0.00,,,0.00,NetBSD+Arduino,2013-01-16 13:40:00,
2013-01-16 05:45:00,28.4,28.0,30.67,NE,45,0.0,1.5,98,0.00,,,0.00,NetBSD+Arduino,2013-01-16 13:45:00,
2013-01-16 05:50:00,28.4,28.0,30.67,East,90,0.0,0.0,98,0.00,,,0.00,NetBSD+Arduino,2013-01-16 13:50:00,
2013-01-16 05:56:00,28.4,28.0,30.67,NE,45,0.4,1.5,98,0.00,,,0.00,NetBSD+Arduino,2013-01-16 13:56:00,
2013-01-16 06:11:00,28.4,28.0,30.67,North,0,0.9,1.5,98,0.00,,,0.00,NetBSD+Arduino,2013-01-16 14:11:00,
2013-01-16 06:20:00,28.6,28.4,30.66,North,0,0.7,3.0,98,0.00,,,0.00,NetBSD+Arduino,2013-01-16 14:20:00,
2013-01-16 06:26:00,28.8,28.5,30.66,NW,315,0.0,3.0,98,0.00,,,0.00,NetBSD+Arduino,2013-01-16 14:26:00,
2013-01-16 06:31:00,29.0,28.7,30.66,East,90,0.0,1.5,98,0.00,,,0.00,NetBSD+Arduino,2013-01-16 14:31:00,
2013-01-16 06:40:00,28.9,28.8,30.66,NW,315,0.0,3.0,99,0.00,,,0.00,NetBSD+Arduino,2013-01-16 14:40:00,
2013-01-16 06:50:00,28.8,28.6,30.66,NE,45,0.0,1.5,99,0.00,,,0.00,NetBSD+Arduino,2013-01-16 14:50:00,
2013-01-16 07:00:00,28.6,28.4,30.66,NE,45,1.1,1.5,99,0.00,,,0.00,NetBSD+Arduino,2013-01-16 15:00:00,
2013-01-16 07:05:00,28.4,28.2,30.65,NE,45,1.1,3.0,99,0.00,,,0.00,NetBSD+Arduino,2013-01-16 15:05:00,
2013-01-16 07:20:00,28.1,27.9,30.65,NW,315,0.0,1.5,99,0.00,,,0.00,NetBSD+Arduino,2013-01-16 15:20:00,
2013-01-16 07:25:00,28.2,28.0,30.65,South,180,0.4,1.5,99,0.00,,,0.00,NetBSD+Arduino,2013-01-16 15:25:00,
2013-01-16 07:30:00,28.2,28.0,30.66,NE,45,0.7,3.0,99,0.00,,,0.00,NetBSD+Arduino,2013-01-16 15:30:00,
2013-01-16 07:36:00,28.1,27.9,30.66,South,180,1.0,3.0,99,0.00,,,0.00,NetBSD+Arduino,2013-01-16 15:36:00,
2013-01-16 07:45:00,28.1,27.9,30.66,South,180,0.4,3.0,99,0.00,,,0.00,NetBSD+Arduino,2013-01-16 15:45:00,
2013-01-16 07:50:00,27.9,27.7,30.66,South,180,0.0,0.0,99,0.00,,,0.00,NetBSD+Arduino,2013-01-16 15:50:00,
2013-01-16 08:00:00,28.0,27.8,30.66,SE,135,0.0,1.5,99,0.00,,,0.00,NetBSD+Arduino,2013-01-16 16:00:00,
2013-01-16 08:10:00,28.2,28.0,30.66,South,180,0.0,0.0,99,0.00,,,0.00,NetBSD+Arduino,2013-01-16 16:10:00,
2013-01-16 08:20:00,28.4,28.1,30.66,NE,45,0.0,0.0,99,0.00,,,0.00,NetBSD+Arduino,2013-01-16 16:20:00,
2013-01-16 08:25:00,28.4,28.1,30.66,East,90,0.0,0.0,99,0.00,,,0.00,NetBSD+Arduino,2013-01-16 16:25:00,
2013-01-16 08:35:00,28.4,28.1,30.66,South,180,0.0,0.0,99,0.00,,,0.00,NetBSD+Arduino,2013-01-16 16:35:00,
2013-01-16 08:40:00,28.5,28.3,30.66,South,180,0.0,0.0,99,0.00,,,0.00,NetBSD+Arduino,2013-01-16 16:40:00,
2013-01-16 08:45:00,28.5,28.3,30.66,South,180,0.0,0.0,99,0.00,,,0.00,NetBSD+Arduino,2013-01-16 16:45:00,
2013-01-16 08:50:00,28.8,28.6,30.66,NW,315,0.0,0.0,99,0.00,,,0.00,NetBSD+Arduino,2013-01-16 16:50:00,
2013-01-16 09:00:00,29.2,29.0,30.66,NW,315,0.0,0.0,98,0.00,,,0.00,NetBSD+Arduino,2013-01-16 17:00:00,
2013-01-16 09:05:00,29.7,29.5,30.66,NW,315,0.0,0.0,98,0.00,,,0.00,NetBSD+Arduino,2013-01-16 17:05:00,
2013-01-16 09:10:00,30.2,29.9,30.66,NW,315,0.0,0.0,98,0.00,,,0.00,NetBSD+Arduino,2013-01-16 17:10:00,
2013-01-16 09:20:00,30.7,30.4,30.66,NW,315,0.0,0.0,98,0.00,,,0.00,NetBSD+Arduino,2013-01-16 17:20:00,
2013-01-16 09:25:00,31.1,30.8,30.66,NE,45,0.0,0.0,98,0.00,,,0.00,NetBSD+Arduino,2013-01-16 17:25:00,
2013-01-16 09:35:00,31.9,31.6,30.66,South,180,0.0,0.0,98,0.00,,,0.00,NetBSD+Arduino,2013-01-16 17:35:00,
2013-01-16 09:40:00,32.1,31.8,30.66,East,90,0.0,1.5,98,0.00,,,0.00,NetBSD+Arduino,2013-01-16 17:40:00,
2013-01-16 09:46:00,32.5,32.0,30.66,South,180,0.4,1.5,98,0.00,,,0.00,NetBSD+Arduino,2013-01-16 17:46:00,
2013-01-16 09:55:00,33.0,32.6,30.66,North,0,0.0,1.5,98,0.00,,,0.00,NetBSD+Arduino,2013-01-16 17:55:00,
2013-01-16 10:05:00,33.1,32.5,30.66,SE,135,2.2,3.0,97,0.00,,,0.00,NetBSD+Arduino,2013-01-16 18:05:00,
2013-01-16 10:10:00,33.3,32.7,30.66,SE,135,0.0,3.0,97,0.00,,,0.00,NetBSD+Arduino,2013-01-16 18:10:00,
2013-01-16 10:25:00,34.0,33.2,30.65,SE,135,1.5,3.0,96,0.00,,,0.00,NetBSD+Arduino,2013-01-16 18:25:00,
2013-01-16 10:30:00,34.6,33.6,30.65,South,180,1.5,4.5,96,0.00,,,0.00,NetBSD+Arduino,2013-01-16 18:30:00,
2013-01-16 10:35:00,34.4,33.5,30.65,South,180,0.4,4.5,96,0.00,,,0.00,NetBSD+Arduino,2013-01-16 18:35:00,
2013-01-16 10:40:00,33.5,32.6,30.64,SE,135,2.2,6.0,96,0.00,,,0.00,NetBSD+Arduino,2013-01-16 18:40:00,
2013-01-16 10:45:00,33.9,32.9,30.65,South,180,1.5,6.0,96,0.00,,,0.00,NetBSD+Arduino,2013-01-16 18:45:00,
2013-01-16 10:50:00,34.8,33.6,30.65,South,180,0.0,3.0,95,0.00,,,0.00,NetBSD+Arduino,2013-01-16 18:50:00,
2013-01-16 10:55:00,36.1,34.6,30.65,South,180,0.5,3.0,94,0.00,,,0.00,NetBSD+Arduino,2013-01-16 18:55:00,
2013-01-16 11:00:00,36.7,34.8,30.64,East,90,2.6,4.5,92,0.00,,,0.00,NetBSD+Arduino,2013-01-16 19:00:00,
2013-01-16 11:10:00,36.2,34.1,30.64,SE,135,1.0,3.0,91,0.00,,,0.00,NetBSD+Arduino,2013-01-16 19:10:00,
2013-01-16 11:15:00,36.1,34.2,30.63,South,180,0.5,3.0,92,0.00,,,0.00,NetBSD+Arduino,2013-01-16 19:15:00,
2013-01-16 11:21:00,37.0,34.7,30.64,East,90,1.1,4.5,91,0.00,,,0.00,NetBSD+Arduino,2013-01-16 19:21:00,
2013-01-16 11:26:00,36.4,34.3,30.63,SW,225,0.0,4.5,91,0.00,,,0.00,NetBSD+Arduino,2013-01-16 19:26:00,
2013-01-16 11:35:00,38.7,35.2,30.63,East,90,1.5,4.5,87,0.00,,,0.00,NetBSD+Arduino,2013-01-16 19:35:00,
2013-01-16 11:40:00,39.3,35.5,30.63,SE,135,1.5,4.5,86,0.00,,,0.00,NetBSD+Arduino,2013-01-16 19:40:00,
2013-01-16 11:46:00,38.2,34.9,30.63,East,90,3.0,4.5,88,0.00,,,0.00,NetBSD+Arduino,2013-01-16 19:46:00,
2013-01-16 11:55:00,36.8,34.2,30.63,East,90,2.6,4.5,90,0.00,,,0.00,NetBSD+Arduino,2013-01-16 19:55:00,
2013-01-16 12:00:00,36.6,34.2,30.63,SE,135,1.5,6.0,91,0.00,,,0.00,NetBSD+Arduino,2013-01-16 20:00:00,
2013-01-16 12:05:00,36.2,34.1,30.63,East,90,2.5,4.5,91,0.00,,,0.00,NetBSD+Arduino,2013-01-16 20:05:00,
2013-01-16 12:15:00,36.6,34.6,30.63,SE,135,3.4,6.0,92,0.00,,,0.00,NetBSD+Arduino,2013-01-16 20:15:00,
2013-01-16 12:20:00,36.4,34.4,30.63,SE,135,2.6,4.5,92,0.00,,,0.00,NetBSD+Arduino,2013-01-16 20:20:00,
2013-01-16 12:25:00,36.1,34.2,30.63,SE,135,4.0,6.0,92,0.00,,,0.00,NetBSD+Arduino,2013-01-16 20:25:00,
2013-01-16 12:30:00,36.7,34.8,30.63,SE,135,0.4,6.0,92,0.00,,,0.00,NetBSD+Arduino,2013-01-16 20:30:00,
2013-01-16 12:35:00,36.6,34.7,30.63,South,180,3.0,6.0,92,0.00,,,0.00,NetBSD+Arduino,2013-01-16 20:35:00,
2013-01-16 12:40:00,36.9,35.0,30.62,SW,225,0.0,6.0,92,0.00,,,0.00,NetBSD+Arduino,2013-01-16 20:40:00,
2013-01-16 12:50:00,36.7,34.8,30.62,NE,45,0.5,4.5,92,0.00,,,0.00,NetBSD+Arduino,2013-01-16 20:50:00,
2013-01-16 13:00:00,37.2,35.0,30.61,SE,135,3.0,6.0,91,0.00,,,0.00,NetBSD+Arduino,2013-01-16 21:00:00,
2013-01-16 13:10:00,37.7,35.0,30.61,East,90,1.5,4.5,89,0.00,,,0.00,NetBSD+Arduino,2013-01-16 21:10:00,
2013-01-16 13:20:00,38.2,35.2,30.60,East,90,2.0,4.5,88,0.00,,,0.00,NetBSD+Arduino,2013-01-16 21:20:00,
2013-01-16 13:25:00,38.9,35.9,30.60,SE,135,1.5,3.0,89,0.00,,,0.00,NetBSD+Arduino,2013-01-16 21:25:00,
2013-01-16 13:35:00,38.6,35.4,30.60,SE,135,0.4,4.5,88,0.00,,,0.00,NetBSD+Arduino,2013-01-16 21:35:00,
2013-01-16 13:40:00,38.4,35.2,30.60,South,180,3.0,6.0,88,0.00,,,0.00,NetBSD+Arduino,2013-01-16 21:40:00,
2013-01-16 13:45:00,38.8,35.4,30.60,South,180,0.5,6.0,87,0.00,,,0.00,NetBSD+Arduino,2013-01-16 21:45:00,
2013-01-16 13:50:00,39.0,35.2,30.60,South,180,0.0,6.0,86,0.00,,,0.00,NetBSD+Arduino,2013-01-16 21:50:00,
2013-01-16 14:00:00,39.7,35.2,30.60,South,180,0.0,4.5,83,0.00,,,0.00,NetBSD+Arduino,2013-01-16 22:00:00,
2013-01-16 14:05:00,39.2,35.0,30.60,East,90,1.1,4.5,84,0.00,,,0.00,NetBSD+Arduino,2013-01-16 22:05:00,
2013-01-16 14:10:00,39.0,34.8,30.60,South,180,1.0,4.5,84,0.00,,,0.00,NetBSD+Arduino,2013-01-16 22:10:00,
2013-01-16 14:15:00,39.0,34.8,30.59,East,90,0.7,3.0,84,0.00,,,0.00,NetBSD+Arduino,2013-01-16 22:15:00,
2013-01-16 14:20:00,39.0,34.9,30.59,NE,45,0.5,3.0,84,0.00,,,0.00,NetBSD+Arduino,2013-01-16 22:20:00,
2013-01-16 14:25:00,39.2,34.8,30.59,South,180,3.0,4.5,84,0.00,,,0.00,NetBSD+Arduino,2013-01-16 22:25:00,
2013-01-16 14:30:00,39.0,34.4,30.59,SE,135,0.7,3.0,83,0.00,,,0.00,NetBSD+Arduino,2013-01-16 22:30:00,
2013-01-16 14:40:00,39.0,34.5,30.59,South,180,0.0,3.0,84,0.00,,,0.00,NetBSD+Arduino,2013-01-16 22:40:00,
2013-01-16 14:50:00,39.5,34.6,30.59,North,0,0.0,0.0,82,0.00,,,0.00,NetBSD+Arduino,2013-01-16 22:50:00,
2013-01-16 14:55:00,39.5,34.6,30.59,NE,45,0.0,0.0,82,0.00,,,0.00,NetBSD+Arduino,2013-01-16 22:55:00,
2013-01-16 15:00:00,39.7,34.7,30.58,South,180,2.0,3.0,82,0.00,,,0.00,NetBSD+Arduino,2013-01-16 23:00:00,
2013-01-16 15:05:00,39.6,34.7,30.59,SE,135,1.9,3.0,82,0.00,,,0.00,NetBSD+Arduino,2013-01-16 23:05:00,
2013-01-16 15:11:00,39.8,34.7,30.59,NE,45,0.0,3.0,81,0.00,,,0.00,NetBSD+Arduino,2013-01-16 23:11:00,
2013-01-16 15:20:00,39.7,34.3,30.59,East,90,0.5,3.0,80,0.00,,,0.00,NetBSD+Arduino,2013-01-16 23:20:00,
2013-01-16 15:30:00,39.7,34.0,30.58,East,90,1.5,3.0,79,0.00,,,0.00,NetBSD+Arduino,2013-01-16 23:30:00,
2013-01-16 15:35:00,39.6,33.9,30.58,NE,45,0.4,3.0,79,0.00,,,0.00,NetBSD+Arduino,2013-01-16 23:35:00,
2013-01-16 15:45:00,39.5,33.5,30.58,North,0,1.0,3.0,79,0.00,,,0.00,NetBSD+Arduino,2013-01-16 23:45:00,
2013-01-16 15:50:00,39.5,33.5,30.58,North,0,2.0,3.0,78,0.00,,,0.00,NetBSD+Arduino,2013-01-16 23:50:00,
2013-01-16 16:00:00,39.6,33.4,30.58,North,0,1.5,3.0,78,0.00,,,0.00,NetBSD+Arduino,2013-01-17 00:00:00,
2013-01-16 16:10:00,39.2,33.2,30.58,North,0,0.4,3.0,79,0.00,,,0.00,NetBSD+Arduino,2013-01-17 00:10:00,
2013-01-16 16:20:00,38.9,33.1,30.58,NE,45,2.2,3.0,79,0.00,,,0.00,NetBSD+Arduino,2013-01-17 00:20:00,
2013-01-16 16:25:00,38.9,33.1,30.57,NW,315,0.4,4.5,79,0.00,,,0.00,NetBSD+Arduino,2013-01-17 00:25:00,
2013-01-16 16:35:00,38.4,33.0,30.58,North,0,1.1,3.0,80,0.00,,,0.00,NetBSD+Arduino,2013-01-17 00:35:00,
2013-01-16 16:40:00,38.2,32.7,30.57,North,0,1.9,4.5,80,0.00,,,0.00,NetBSD+Arduino,2013-01-17 00:40:00,
2013-01-16 16:45:00,38.0,33.2,30.57,NW,315,0.5,3.0,82,0.00,,,0.00,NetBSD+Arduino,2013-01-17 00:45:00,
2013-01-16 16:50:00,37.8,33.0,30.57,North,0,0.0,3.0,82,0.00,,,0.00,NetBSD+Arduino,2013-01-17 00:50:00,
2013-01-16 17:00:00,37.4,32.9,30.56,NW,315,0.0,1.5,83,0.00,,,0.00,NetBSD+Arduino,2013-01-17 01:00:00,
2013-01-16 17:10:00,36.7,32.5,30.56,NW,315,0.0,1.5,84,0.00,,,0.00,NetBSD+Arduino,2013-01-17 01:10:00,
2013-01-16 17:15:00,36.4,32.3,30.56,NW,315,1.0,1.5,85,0.00,,,0.00,NetBSD+Arduino,2013-01-17 01:15:00,
2013-01-16 17:25:00,36.0,32.1,30.57,NW,315,0.0,1.5,85,0.00,,,0.00,NetBSD+Arduino,2013-01-17 01:25:00,
2013-01-16 17:30:00,36.0,32.3,30.57,NW,315,0.0,1.5,86,0.00,,,0.00,NetBSD+Arduino,2013-01-17 01:30:00,
2013-01-16 17:40:00,36.4,32.3,30.57,North,0,3.7,4.5,85,0.00,,,0.00,NetBSD+Arduino,2013-01-17 01:40:00,
2013-01-16 17:50:00,36.3,32.3,30.57,North,0,1.0,4.5,85,0.00,,,0.00,NetBSD+Arduino,2013-01-17 01:50:00,
2013-01-16 17:55:00,36.1,32.2,30.57,NW,315,0.0,6.0,85,0.00,,,0.00,NetBSD+Arduino,2013-01-17 01:55:00,
2013-01-16 18:05:00,36.1,32.3,30.57,NW,315,1.1,6.0,85,0.00,,,0.00,NetBSD+Arduino,2013-01-17 02:05:00,
2013-01-16 18:15:00,35.7,32.0,30.58,North,0,1.0,4.5,86,0.00,,,0.00,NetBSD+Arduino,2013-01-17 02:15:00,
2013-01-16 18:20:00,35.7,32.1,30.57,West,270,0.5,4.5,86,0.00,,,0.00,NetBSD+Arduino,2013-01-17 02:20:00,
2013-01-16 18:30:00,35.5,32.0,30.57,NE,45,0.7,3.0,86,0.00,,,0.00,NetBSD+Arduino,2013-01-17 02:30:00,
2013-01-16 18:35:00,35.3,32.1,30.57,NW,315,0.0,3.0,87,0.00,,,0.00,NetBSD+Arduino,2013-01-17 02:35:00,
2013-01-16 18:40:00,35.0,31.7,30.57,NW,315,0.5,1.5,87,0.00,,,0.00,NetBSD+Arduino,2013-01-17 02:40:00,
2013-01-16 18:50:00,34.8,31.6,30.58,North,0,1.1,3.0,88,0.00,,,0.00,NetBSD+Arduino,2013-01-17 02:50:00,
2013-01-16 19:00:00,35.1,31.8,30.57,NE,45,1.0,3.0,87,0.00,,,0.00,NetBSD+Arduino,2013-01-17 03:00:00,
2013-01-16 19:05:00,35.1,31.8,30.57,North,0,1.5,3.0,87,0.00,,,0.00,NetBSD+Arduino,2013-01-17 03:05:00,
2013-01-16 19:15:00,35.0,31.9,30.57,NE,45,0.5,1.5,88,0.00,,,0.00,NetBSD+Arduino,2013-01-17 03:15:00,
2013-01-16 19:20:00,35.0,31.9,30.57,North,0,1.5,3.0,88,0.00,,,0.00,NetBSD+Arduino,2013-01-17 03:20:00,
2013-01-16 19:25:00,34.7,31.7,30.57,North,0,0.5,3.0,88,0.00,,,0.00,NetBSD+Arduino,2013-01-17 03:25:00,
2013-01-16 19:35:00,34.3,31.7,30.56,NE,45,0.0,3.0,89,0.00,,,0.00,NetBSD+Arduino,2013-01-17 03:35:00,
2013-01-16 19:40:00,34.0,31.4,30.56,NE,45,1.0,1.5,89,0.00,,,0.00,NetBSD+Arduino,2013-01-17 03:40:00,
2013-01-16 19:50:00,33.8,31.5,30.56,NE,45,0.0,1.5,91,0.00,,,0.00,NetBSD+Arduino,2013-01-17 03:50:00,
2013-01-16 20:00:00,33.8,31.6,30.56,NE,45,1.0,3.0,91,0.00,,,0.00,NetBSD+Arduino,2013-01-17 04:00:00,
2013-01-16 20:10:00,34.0,31.8,30.56,North,0,1.0,3.0,91,0.00,,,0.00,NetBSD+Arduino,2013-01-17 04:10:00,
2013-01-16 20:20:00,34.0,31.8,30.56,North,0,0.5,3.0,91,0.00,,,0.00,NetBSD+Arduino,2013-01-17 04:20:00,
2013-01-16 20:30:00,33.5,31.4,30.55,West,270,0.0,0.0,91,0.00,,,0.00,NetBSD+Arduino,2013-01-17 04:30:00,
2013-01-16 20:35:00,33.4,31.4,30.55,West,270,0.0,0.0,92,0.00,,,0.00,NetBSD+Arduino,2013-01-17 04:35:00,
2013-01-16 20:45:00,33.4,31.6,30.55,NW,315,0.0,1.5,93,0.00,,,0.00,NetBSD+Arduino,2013-01-17 04:45:00,
2013-01-16 20:55:00,33.3,31.4,30.55,East,90,0.0,0.0,92,0.00,,,0.00,NetBSD+Arduino,2013-01-17 04:55:00,
2013-01-16 21:00:00,33.3,31.5,30.55,North,0,0.0,0.0,92,0.00,,,0.00,NetBSD+Arduino,2013-01-17 05:00:00,
2013-01-16 21:05:00,33.2,31.4,30.54,North,0,0.4,1.5,92,0.00,,,0.00,NetBSD+Arduino,2013-01-17 05:05:00,
2013-01-16 21:10:00,33.3,31.5,30.54,North,0,0.0,1.5,92,0.00,,,0.00,NetBSD+Arduino,2013-01-17 05:10:00,
2013-01-16 21:15:00,33.5,31.8,30.55,North,0,0.0,1.5,93,0.00,,,0.00,NetBSD+Arduino,2013-01-17 05:15:00,
2013-01-16 21:20:00,33.1,31.3,30.54,North,0,0.5,1.5,92,0.00,,,0.00,NetBSD+Arduino,2013-01-17 05:20:00,
2013-01-16 21:30:00,33.0,31.4,30.54,North,0,0.0,1.5,93,0.00,,,0.00,NetBSD+Arduino,2013-01-17 05:30:00,
2013-01-16 21:35:00,33.1,31.4,30.54,North,0,0.0,0.0,93,0.00,,,0.00,NetBSD+Arduino,2013-01-17 05:35:00,
2013-01-16 21:45:00,32.7,31.1,30.54,North,0,0.0,0.0,93,0.00,,,0.00,NetBSD+Arduino,2013-01-17 05:45:00,
2013-01-16 21:50:00,32.5,30.9,30.55,North,0,0.0,1.5,93,0.00,,,0.00,NetBSD+Arduino,2013-01-17 05:50:00,
2013-01-16 21:55:00,32.5,31.1,30.54,NW,315,0.0,1.5,94,0.00,,,0.00,NetBSD+Arduino,2013-01-17 05:55:00,
2013-01-16 22:00:00,32.6,31.2,30.55,NW,315,0.0,1.5,94,0.00,,,0.00,NetBSD+Arduino,2013-01-17 06:00:00,
2013-01-16 22:05:00,32.8,31.3,30.54,NW,315,0.0,4.5,94,0.00,,,0.00,NetBSD+Arduino,2013-01-17 06:05:00,
2013-01-16 22:10:00,32.6,31.2,30.54,West,270,0.0,1.5,94,0.00,,,0.00,NetBSD+Arduino,2013-01-17 06:10:00,
2013-01-16 22:15:00,32.7,31.2,30.54,West,270,0.0,1.5,94,0.00,,,0.00,NetBSD+Arduino,2013-01-17 06:15:00,
2013-01-16 22:20:00,32.4,31.0,30.53,West,270,0.0,0.0,94,0.00,,,0.00,NetBSD+Arduino,2013-01-17 06:20:00,
2013-01-16 22:30:00,32.2,30.8,30.53,West,270,0.0,1.5,94,0.00,,,0.00,NetBSD+Arduino,2013-01-17 06:30:00,
2013-01-16 22:40:00,32.2,30.9,30.53,West,270,0.0,1.5,94,0.00,,,0.00,NetBSD+Arduino,2013-01-17 06:40:00,
2013-01-16 22:50:00,32.0,30.7,30.53,West,270,0.0,1.5,95,0.00,,,0.00,NetBSD+Arduino,2013-01-17 06:50:00,
2013-01-16 22:55:00,31.8,30.6,30.53,West,270,0.0,0.0,95,0.00,,,0.00,NetBSD+Arduino,2013-01-17 06:55:00,
2013-01-16 23:05:00,31.9,30.6,30.53,West,270,0.0,0.0,95,0.00,,,0.00,NetBSD+Arduino,2013-01-17 07:05:00,
2013-01-16 23:15:00,32.1,30.9,30.53,North,0,0.0,0.0,95,0.00,,,0.00,NetBSD+Arduino,2013-01-17 07:15:00,
2013-01-16 23:20:00,32.0,30.8,30.53,North,0,0.0,0.0,95,0.00,,,0.00,NetBSD+Arduino,2013-01-17 07:20:00,
2013-01-16 23:25:00,32.1,30.9,30.53,North,0,0.0,0.0,95,0.00,,,0.00,NetBSD+Arduino,2013-01-17 07:25:00,
2013-01-16 23:35:00,32.1,30.9,30.53,North,0,0.0,1.5,95,0.00,,,0.00,NetBSD+Arduino,2013-01-17 07:35:00,
2013-01-16 23:45:00,32.2,31.0,30.53,North,0,0.0,0.0,95,0.00,,,0.00,NetBSD+Arduino,2013-01-17 07:45:00,
2013-01-16 23:50:00,32.4,31.2,30.53,North,0,0.0,1.5,95,0.00,,,0.00,NetBSD+Arduino,2013-01-17 07:50:00,
2013-01-16 23:55:00,32.4,31.2,30.53,NW,315,0.0,0.0,95,0.00,,,0.00,NetBSD+Arduino,2013-01-17 07:55:00,